Burbank, CA

4:46 PM PDT on September 22, 2017 (GMT -0700)
Burbank-Glendale-Pasadena

Weather History for KBUR - February, 2015

Change the Weather History Date:

Friday, February 6, 2015

  Actual Average Record
Temperature  
Mean Temperature 62 °F 55 °F  
Max Temperature 76 °F 68 °F 86 °F (1953)
Min Temperature 48 °F 43 °F 29 °F (1989)
Degree Days  
Heating Degree Days 3 10  
Month to date heating degree days 15 60  
Since 1 July heating degree days 482 943  
Cooling Degree Days 0 0  
Month to date cooling degree days 1 0  
Year to date cooling degree days 7 2  
Growing Degree Days 12 (Base 50)    
Moisture  
Dew Point 43 °F    
Average Humidity 52    
Maximum Humidity 80    
Minimum Humidity 23    
Precipitation  
Precipitation 0.00 in 0.16 in 1.92 in (1969)
Month to date precipitation 0.00 0.86  
Year to date precipitation 1.11 4.39  
Sea Level Pressure  
Sea Level Pressure 30.07 in    
Wind  
Wind Speed 3 mph (SSE)    
Max Wind Speed 10 mph    
Max Gust Speed 14 mph    
Visibility 8 miles    
Events      
T = Trace of Precipitation, MM = Missing Value Source: NWS Daily Summary

Daily Weather History Graph

Daily Weather History Graph

Search for Another Location

Airport or City:

Trip Planner

Search our weather history database for the weather conditions in past years. The results will help you decide how hot, cold, wet, or windy it might be!

Date:

Astronomy

Feb. 06, 2015 Rise Set
Actual Time 6:46 AM PST 5:28 PM PST
Civil Twilight 6:20 AM PST 5:54 PM PST
Nautical Twilight 5:51 AM PST 6:24 PM PST
Astronomical Twilight 5:21 AM PST 6:53 PM PST
Moon 8:12 PM PST (2/6) 8:03 AM PST (2/6)
Length of Visible Light 11h 33m
Length of Day
10h 41m
Waning Gibbous, 93% of the Moon is Illuminated
Feb 6
Waning Gibbous
Feb 11
Last Quarter
Feb 18
New
Feb 25
First Quarter
Mar 5
Full

Hourly Weather History & Observations

Time (PST) Temp. Dew Point Humidity Pressure Visibility Wind Dir Wind Speed Gust Speed Precip Events Conditions
12:53 AM 55.0 °F 44.1 °F 67% 30.07 in 10.0 mi Calm Calm - N/A   Clear
1:53 AM 54.0 °F 45.0 °F 72% 30.06 in 9.0 mi Calm Calm - N/A   Clear
2:53 AM 52.0 °F 42.1 °F 69% 30.05 in 10.0 mi Calm Calm - N/A   Clear
3:53 AM 50.0 °F 42.1 °F 74% 30.05 in 10.0 mi Calm Calm - N/A   Clear
4:53 AM 50.0 °F 41.0 °F 71% 30.04 in 10.0 mi Calm Calm - N/A   Clear
5:53 AM 48.9 °F 39.0 °F 69% 30.04 in 10.0 mi Calm Calm - N/A   Clear
6:53 AM 48.9 °F 41.0 °F 74% 30.05 in 7.0 mi Calm Calm - N/A   Clear
7:53 AM 53.1 °F 42.1 °F 66% 30.06 in 6.0 mi Calm Calm - N/A   Haze
8:53 AM 59.0 °F 39.9 °F 49% 30.06 in 8.0 mi Calm Calm - N/A   Clear
9:53 AM 64.9 °F 41.0 °F 42% 30.08 in 9.0 mi Calm Calm - N/A   Clear
10:53 AM 69.1 °F 44.1 °F 40% 30.09 in 7.0 mi SSE 5.8 mph - N/A   Clear
11:53 AM 72.0 °F 43.0 °F 35% 30.07 in 9.0 mi South 8.1 mph - N/A   Clear
12:53 PM 73.0 °F 43.0 °F 34% 30.06 in 8.0 mi SSW 5.8 mph - N/A   Clear
1:53 PM 73.9 °F 39.9 °F 29% 30.06 in 8.0 mi Calm Calm - N/A   Clear
2:53 PM 75.0 °F 35.1 °F 23% 30.05 in 10.0 mi SE 10.4 mph - N/A   Clear
3:53 PM 73.9 °F 37.0 °F 26% 30.05 in 10.0 mi South 6.9 mph - N/A   Clear
4:53 PM 69.1 °F 46.0 °F 44% 30.05 in 6.0 mi South 6.9 mph - N/A   Haze
5:53 PM 66.9 °F 46.9 °F 49% 30.06 in 6.0 mi SE 6.9 mph - N/A   Haze
6:53 PM 63.0 °F 51.1 °F 65% 30.08 in 4.0 mi SSE 5.8 mph - N/A   Haze
7:53 PM 61.0 °F 52.0 °F 72% 30.09 in 4.0 mi East 3.5 mph - N/A   Haze
8:53 PM 59.0 °F 51.1 °F 75% 30.10 in 4.0 mi Calm Calm - N/A   Haze
9:53 PM 55.9 °F 45.0 °F 67% 30.12 in 7.0 mi NNE 3.5 mph - N/A   Clear
10:53 PM 53.1 °F 37.0 °F 55% 30.13 in 10.0 mi Calm Calm - N/A   Clear
11:53 PM 53.1 °F 45.0 °F 74% 30.14 in 8.0 mi WNW 3.5 mph - N/A   Clear